Regional Weather Roundup
Issued by NWS Albany, NY

Home | Current Version | Previous Version | Graphics & Text | Print | Product List | Glossary On
Versions: 1 2 3 4 5 6 7 8 9 10 11 12 13 14 15 16 17 18 19 20 21 22 23 24 25 26 27 28
000
ASUS41 KALY 271310
RWRALY

NEW YORK STATE HOURLY WEATHER ROUNDUP
NATIONAL WEATHER SERVICE ALBANY NY
900 AM EDT THU APR 27 2017

NOTE: "FAIR" INDICATES FEW OR NO CLOUDS BELOW 12,000 FEET WITH NO
SIGNIFICANT WEATHER AND/OR NO OBSTRUCTIONS TO VISIBILITY.

NYZ032-033-038>043-046>054-057>066-NYZ062>081-082-084-271400-
EAST


CITY           SKY/WX    TMP DP  RH WIND       PRES   REMARKS
ALBANY         CLOUDY    61  55  81 S8        29.89R
GLENS FALLS    CLOUDY    62  54  74 S7        29.88R
POUGHKEEPSIE   CLOUDY    59  57  93 SE3       29.89S
NEWBURGH       CLOUDY    59  59 100 VRB5      29.91S FOG
MONTGOMERY     CLOUDY    60  58  92 S3        29.89S
WHITE PLAINS   DRZL/FOG  59  58  96 S3        29.91S VSB 1
ISLIP          CLOUDY    58  58 100 S5        29.92R FOG
NEW YORK CITY  CLOUDY    61  58  90 S10       29.92R FOG
CENTRAL PARK   CLOUDY    60  58  92 VRB3      29.95R FOG
$$

NYZ005>009-017-018-044>046-055-056-271400-
CENTRAL


CITY           SKY/WX    TMP DP  RH WIND       PRES   REMARKS
FULTON         SUNNY     65  56  72 SE8       29.77S
SYRACUSE       PTSUNNY   66  57  72 SE14      29.78S
ROME           CLOUDY    62  57  83 SE8       29.84S
ELMIRA         CLOUDY    63  56  78 E3        29.81S
BINGHAMTON     CLOUDY    59  55  87 S8        29.85R
MONTICELLO     CLOUDY    55  55 100 S3        29.92R VSB 1/2
$$

NYZ026>034-041>043-087-271400-
NORTH


CITY           SKY/WX    TMP DP  RH WIND       PRES   REMARKS
WATERTOWN      SUNNY     71  57  61 VRB7      29.76R
FORT DRUM      NOT AVBL
OGDENSBURG     FAIR      62  59  91 NE3       29.78F
MASSENA        FOG       52  52 100 NE10      29.83S VSB 1/4
SARANAC LAKE   SUNNY     60  55  83 S3        29.84S
PLATTSBURGH    SUNNY     61  53  75 SE7       29.84R
$$

NYZ001>004-010>016-019>021-085-271400-
WEST


CITY           SKY/WX    TMP DP  RH WIND       PRES   REMARKS
NIAGARA FALLS  SUNNY     72  57  59 S8        29.66S
BUFFALO        PTSUNNY   69  56  62 SE12      29.67F
DUNKIRK        MOSUNNY   74  58  57 S17G29    29.65R
JAMESTOWN      SUNNY     64  55  72 S8        29.72S
WELLSVILLE     SUNNY     65  57  75 S6        29.81R
ROCHESTER      MOSUNNY   70  58  65 S9        29.72S
PENN YAN       PTSUNNY   64  55  72 SW9       29.78S
$$

             KEY
       WCI = WIND CHILL INDEX
       VSB = VISIBILITY
       HX  = HEAT INDEX
$$




USA.gov is the U.S. government's official web portal to all federal, state and local government web resources and services.